Погода в Акжарском

Россия / Оренбургская область     51°05′53″N   59°24′33″E
темп.,
°C
ветер,
м/с
пор.,
м/с
влажн.,
%
обл.,
%
осадки,
мм/ч
давл.,
гПа
погр.,
м
19 апреля, пн
пн1923:00+11всв81461100 0.9 1017718
02:00+6всв111567100 0.0 1019639
05:00+2всв111562100 0.0 1022679
08:000всв101566100 0.0 1024644
11:000всв91349100 0.1 1026787
14:00+3всв101138100 0.1 10251160
17:00+5всв81136100 0.3 10251344
20:00+3всв81236100 0.0 1026919
20 апреля, вт
вт2023:000всв91441100 0.0 1028774
02:00−2всв8144798 0.0 1029655
05:00−3всв8134861 0.0 1030660
08:00−2всв912413 0.0 1031818
11:00+2в911280 0.0 10321214
14:00+5всв89280 0.0 10311412
17:00+5всв78290 0.0 10301431
20:00+2всв47410 0.0 1031132
21 апреля, ср
ср2123:000в47500 0.0 1032113
02:000вюв35510 0.0 103282
05:00−1вюв33490 0.0 103331
08:00+2в35380 0.0 1034306
11:00+6вюв45305 0.0 1033974
14:00+9юв34285 0.0 10331251
17:00+10юв442883 0.0 10321345
20:00+7юв33427 0.0 103338
22 апреля, чт
чт2223:00+5юв4749100 0.0 103499
02:00+4юв475487 0.0 1034106
05:00+2ююв4556100 0.0 103573
08:00+4юв5953100 0.0 1035271
11:00+9ююв6839100 0.0 1035804
14:00+12ююв7834100 0.0 10351274
17:00+12ююв7834100 0.0 10331368
20:00+9юв4848100 0.0 1033172
23 апреля, пт
пт2323:00+8юв41154100 0.0 1033265
02:00+8юв41058100 0.0 1032242
05:00+7вюв51162100 0.0 1032222
08:00+8юв61161100 0.0 1032395
11:00+13ююв91042100 0.0 10301228
14:00+15ююв91035100 0.0 10291671
17:00+14ю91039100 0.0 10281705
20:00+9ююв71063100 0.1 1028890